This is the latest recevied weather packets stored in our database for station/object XQ6AK-15. If no packets are shown the sender has not sent any weather packets the latest 1 day(s).
| Time | Temp. | Humidity | Pressure | Rain* | Wind** | Luminosity | Snow |
|---|---|---|---|---|---|---|---|
| 1777973482 | 10.56° C | 99% | 1008.5 hPa | 1.78 mm | 0 m/s | 0 W/m² | - |
| 1777973179 | 10.56° C | 99% | 1008.6 hPa | 1.78 mm | 0.45 m/s, 354° | 0 W/m² | - |
| 1777972878 | 10.56° C | 99% | 1008.5 hPa | 0 mm | 0 m/s | 0 W/m² | - |
| 1777972574 | 10.56° C | 99% | 1008.3 hPa | 1.27 mm | 0.45 m/s, 72° | 0 W/m² | - |
| 1777972272 | 10.56° C | 99% | 1008.2 hPa | 1.27 mm | 0.89 m/s, 80° | 0 W/m² | - |
| 1777971970 | 10.56° C | 99% | 1008.5 hPa | 1.78 mm | 0 m/s | 0 W/m² | - |
| 1777971668 | 10.56° C | 99% | 1008.6 hPa | 1.78 mm | 0 m/s | 0 W/m² | - |
| 1777971365 | 10.56° C | 99% | 1008.5 hPa | 1.27 mm | 0.89 m/s, 4° | 0 W/m² | - |
| 1777971063 | 10.56° C | 99% | 1008.5 hPa | 1.27 mm | 0.45 m/s, 89° | 0 W/m² | - |
| 1777970761 | 10.56° C | 99% | 1008.7 hPa | 1.78 mm | 0.45 m/s, 62° | 0 W/m² | - |
| 1777970459 | 10.56° C | 99% | 1008.5 hPa | 1.78 mm | 0 m/s | 0 W/m² | - |
| 1777970155 | 10.56° C | 99% | 1008.6 hPa | 1.27 mm | 0 m/s | 0 W/m² | - |
| 1777969852 | 10.56° C | 99% | 1008.7 hPa | 1.78 mm | 0.45 m/s, 22° | 0 W/m² | - |
| 1777969548 | 10.56° C | 99% | 1008.6 hPa | 3.05 mm | 0 m/s | 0 W/m² | - |
| 1777969245 | 10.56° C | 99% | 1008.8 hPa | 3.56 mm | 0 m/s | 0 W/m² | - |
| 1777968941 | 10.56° C | 99% | 1008.8 hPa | 3.05 mm | 0 m/s | 0 W/m² | - |
| 1777968639 | 10.56° C | 99% | 1008.7 hPa | 3.05 mm | 0.45 m/s, 346° | 0 W/m² | - |
| 1777968335 | 10.56° C | 99% | 1008.9 hPa | 3.05 mm | 0.45 m/s, 107° | 0 W/m² | - |
| 1777968032 | 10.56° C | 99% | 1009 hPa | 4.32 mm | 0.45 m/s, 338° | 0 W/m² | - |
| 1777967727 | 10.56° C | 99% | 1009 hPa | 3.05 mm | 0.45 m/s, 51° | 0 W/m² | - |
| 1777967425 | 10.56° C | 99% | 1009.1 hPa | 3.05 mm | 0.45 m/s, 335° | 0 W/m² | - |
| 1777967122 | 10.56° C | 99% | 1009 hPa | 3.05 mm | 0 m/s | 0 W/m² | - |
| 1777966819 | 10.56° C | 99% | 1008.8 hPa | 1.78 mm | 0.45 m/s, 32° | 0 W/m² | - |
| 1777966516 | 10.56° C | 99% | 1009.2 hPa | 1.27 mm | 0 m/s | 0 W/m² | - |
| 1777966215 | 10.56° C | 99% | 1009.3 hPa | 1.78 mm | 0 m/s | 0 W/m² | - |
* Rain latest hour (hover to see other rain measurements)
** Current wind speed in m/s (hover to see current wind gust speed)